Regional Weather Roundup
Issued by NWS Wakefield, VA

Home | Current Version | Previous Version | Text Only | Print | Product List | Glossary Off
Versions: 1 2 3 4 5 6 7 8 9 10 11 12 13 14 15 16 17 18 19 20 21 22 23 24 25 26 27

000
ASUS41 KAKQ 252215
RWRAKQ

REGIONAL WEATHER ROUNDUP
NATIONAL WEATHER SERVICE WAKEFIELD VA
600 PM EDT TUE APR 25 2017

Note: "fair" indicates few or no clouds below 12,000 feet with no
significant weather and/or obstructions to visibility. * = Denotes
station may not report precipitation (e.g., rain,snow,etc.),
thunder or fog.

VAZ042-051-052>054-056-252300-
NORTHERN VIRGINIA

CITY           SKY/WX    TMP DP  RH WIND       PRES   REMARKS
WASH NATIONAL  CLOUDY    61  58  90 NE16      29.74R
DULLES         DRIZZLE   59  57  93 NE9       29.74F FOG
FORT BELVOIR   CLOUDY    61  57  88 CALM      29.73R
QUANTICO       CLOUDY    61  60  97 NE15      29.73S
FREDERICKSBRG* CLOUDY    61  61 100 N8        29.70S
STAFFORD*      DRIZZLE   59  59 100 N6        29.76S
WARRENTON      DRIZZLE   60  57  89 N10       29.73S
CULPEPER*      CLOUDY    60  59  99 N7        29.74S FOG
MANASSAS*        N/A     59  57  94 NE8       29.74S
LEESBURG*      CLOUDY    59  59 100 NE8       29.77F FOG
WINCHESTER     DRIZZLE   54  52  94 N5        29.77F
FRONT ROYAL*   CLOUDY    54  54 100 CALM      29.76F
LURAY*         CLOUDY    55  54  94 N8        29.76S
$$

VAZ048-049-060>072-079>083-252300-
CENTRAL AND SOUTH CENTRAL VIRGINIA

CITY           SKY/WX    TMP DP  RH WIND       PRES   REMARKS
RICHMOND       PTSUNNY   67  63  87 N12       29.66R
CHESTERFIELD*  CLOUDY    64  48  55 N8        29.68R
PETERSBURG*    CLOUDY    68  62  81 N8        29.65R
HANOVER        CLOUDY    63  60  90 N7        29.69S
TAPPAHANNOCK*  LGT RAIN  66  65  97 N7        29.67S
QUINTON*       CLOUDY    68  64  87 N8G16     29.65R
CHARLOTTSVILLE LGT RAIN  60  56  86 NE13      29.73R FOG
GORDONSVILLE*  CLOUDY    58  58  99 NE8       29.71S FOG
ORANGE*        CLOUDY    59  55  88 NE10G17   29.72S FOG
LOUISA*        CLOUDY    63  61  94 N7        29.70S FOG
BUMPASS*       CLOUDY    59  59 100 N7        29.71R
FARMVILLE*     CLOUDY    63  62  96 N7        29.68R
CREWE*         CLOUDY    61  61 100 N6        29.67R
FORT PICKETT*  CLOUDY    63  59  88 NW13      29.66R
CHASE CITY*    MOCLDY    63  62  94 N5        29.66R
CLARKSVILLE*   FAIR      64  64 100 N5        29.65R
SOUTH HILL*    PTSUNNY   71  60  69 CALM      29.69S
LAWRENCEVILLE* CLOUDY    71  64  77 N7        29.63R
EMPORIA*       CLOUDY    73  59  60 NW5       29.62S
$$

VAZ088>098-252300-
SOUTHEAST VIRGINIA

CITY           SKY/WX    TMP DP  RH WIND       PRES   REMARKS
NORFOLK        CLOUDY    67  62  84 CALM      29.61R
VIRGINIA BEACH CLOUDY    66  61  84 NW6       29.61R
NORFOLK NAVAL  CLOUDY    66  61  84 VRB5      29.63R
WEST POINT*    CLOUDY    66  61  85 NE3       29.65S
SALUDA*        CLOUDY    64  63  99 N5        29.64S
NEWPORT NEWS   LGT RAIN  66  63  90 E9        29.62S
LANGLEY AFB    LGT RAIN  64  64 100 E3        29.62S
FORT EUSTIS    PTSUNNY   69  62  76 NE7       29.61R
WILLIAMSBURG*  MOSUNNY   70  64  83 CALM      29.64R
HR EXEC AP*    MOCLDY    72  61  68 NE3       29.60R
FRANKLIN*      PTSUNNY   72  61  69 NE3       29.62R
US460-WAKEFLD  CLOUDY    71  64  78 NE3       29.62R
$$

VAZ020-022-025-037-045-252300-
WEST CENTRAL AND SOUTHWEST VIRGINIA

CITY           SKY/WX    TMP DP  RH WIND       PRES   REMARKS
STAUNTON*      CLOUDY    55  53  92 N14       29.77F
WAYNESBORO*    CLOUDY    53  53 100 N9        29.76R
HOT SPRINGS VA CLOUDY    43  41  93 N7        29.80S
LYNCHBURG      CLOUDY    59  55  87 N12G21    29.72R
DANVILLE       CLOUDY    60  59  96 N9        29.69R
SOUTH BOSTON*  CLOUDY    61  60  96 N7        29.68R
MARTINSVILLE   CLOUDY    61  54  78 NE7       29.74R
ROANOKE        CLOUDY    62  54  74 NE9       29.76R
BLACKSBURG     CLOUDY    60  53  79 NE5       29.79R
DUBLIN*        CLOUDY    63  55  73 NW3       29.77R
MARION*        CLOUDY    62  60  92 CALM      29.80R
HILLSVILLE*    PTSUNNY   59  57  92 N8        29.75S
RICHLANDS*     CLOUDY    64  55  74 CALM      29.78R
WISE*          CLOUDY    64  54  68 CALM      29.79S
ABINGDON*      CLOUDY    67  58  75 W7        29.76S
$$

MDZ021>025-VAZ099-100-252300-
SOUTHERN MARYLAND AND THE DELMARVA PENINSULA

CITY           SKY/WX    TMP DP  RH WIND       PRES   REMARKS
PATUXENT RIVER CLOUDY    62  62 100 N9        29.68R
BAY BRIDGE APT LGT RAIN  59  57  94 NE13G25   29.72F FOG
LEONARDTOWN    CLOUDY    59  59 100 N3        29.70S
DOVER          CLOUDY    59  59 100 NE15      29.73F
GEORGETOWN     RAIN      60  32  34 NE8       29.71F
EASTON         CLOUDY    63  59  88 NE15G24   29.75F FOG
CAMBRIDGE      CLOUDY    61  59  94 NE12      29.69S FOG
SALISBURY      LGT RAIN  62  62 100 NE9       29.67S
OCEAN CITY     CLOUDY    58  58 100 E10       29.67F FOG
WALLOPS ISLAND LGT RAIN  62  62 100 NE13      29.65F
ACCOMACK*      CLOUDY    64  62  92 NE8       29.63F
$$

NCZ012>017-030>032-252300-
NORTH CENTRAL AND EASTERN NORTH CAROLINA

CITY           SKY/WX    TMP DP  RH WIND       PRES   REMARKS
ROANOKE RAPIDS LGT RAIN  70  61  73 NW5       29.61R
RALEIGH        PTSUNNY   67  57  70 VRB5      29.64S
ELIZABETH CITY CLOUDY    69  64  84 E3        29.62R
AHOSKIE*         N/A     70  63  76 CALM      29.61S
EDENTON*       CLOUDY    71  62  74 CALM      29.62S
CURRITUCK*     CLOUDY    67  63  87 CALM      29.63S
KILL DEVIL HLS CLOUDY    67  65  96 CALM      29.61R
MANTEO         CLOUDY    68  61  78 S8        29.62S
CAPE HATTERAS  SUNNY     72  61  68 VRB3      29.63R HAZE
TARBORO*       NOT AVBL
GOLDSBORO      CLOUDY    74  60  61 W8        29.60R
WASHINGTON     CLOUDY    65  58  79 CALM      29.61S
GREENVILLE     CLOUDY    68  61  77 S7        29.64R
NEW BERN       CLOUDY    71  60  68 SW8       29.62S
WILMINGTON     PTSUNNY   69  60  73 W16       29.64R
$$

VAZ048-252300-
ELSEWHERE

CITY           SKY/WX    TMP DP  RH WIND       PRES   REMARKS
HARRISBURG PA  CLOUDY    58  55  90 E10G21    29.80S
BALTIMORE      LGT RAIN  58  57  97 NE15      29.76S FOG
ANNAPOLIS      CLOUDY    60  58  92 NE9       29.73F
ANDREWS AFB    CLOUDY    59  57  94 NE13      29.71S
PHILADELPHIA   CLOUDY    56  54  93 NE17G26   29.83R
HENDERSON NC   MOSUNNY   66  55  68 NW3       29.65R
GREENSBORO     CLOUDY    61  59  93 N8        29.70R
ROCKY MOUNT    MOSUNNY   74  59  59 W6        29.61R
$$

VAZ100-252300-
MARINE

STATION/POSITION TIME  TEMP    WIND        PRES    WAVE   SWELL
                       AIR SEA DIR/SP/G            HT/PER HT/PER
                 (UTC) (F)     (DEG/KT/KT) (MB)    (FT/S) (FT/S)
CAPE MAY NJ      2136   58 55   60/  6/ 12 1006.5F
LEWES DE         2136   56 55   80/ 14/ 16 1006.2R
15NM E FENWICK I 2150   56 51   70/ 16/ 17 1005.3F  10/10   8/10
OCEAN-CITY-INLET 2136   58 54   80/ 12/ 18 1005.1F
WACHAPREAGUE VA  2136   62 60   30/ 12/ 16 1002.7F
THOMAS POINT MD  2200   58 56   20/ 18/ 19   N/A
GOOSES REEF MD   2200   60 53   40/ 10/ 10 1006.3    1/ 2
COVE POINT MD    2136   59     360/  8/ 12 1006.0R
SOLOMONS ISLAND  2136   61 60  360/  7/  9   N/A
BISHOPS HEAD MD  2136   63 60   20/  8/ 15 1004.8R
PINEY POINT MD   2148           50/  7/  8   N/A
POTOMAC MD       2200   62 60   20/ 12/ 14 1003.6    1
CAMBRIDGE MD     2136   61 61                N/A
LEWISETTA VA     2136   63 60   60/  6/  8 1004.3R
RAPPAHANNOCK LGT 2148           20/  5/  6 1003.9F
STINGRAY PT      2200   62 62   40/ 10/ 14 1003.4    1/ 2
YORK RVR RNG VA  2136   63      60/ 16/ 18 1001.8F
YORKTOWN VA      2136   65 63   50/  5/  7 1002.6S
JAMESTOWN VA     2200   68 68  100/  6/  8   N/A     0
DOMINION TERM VA 2136   67     100/  3/ 10 1003.0R
KIPTOPEKE VA     2148      61   40/  8/ 12   N/A
CHES BAY BRIDGE  2142   62 62   80/  2/  6 1002.6R
CAPE HENRY VA    2142   62     340/  4/  6   N/A
WILLOUBY STN VA  2142   62      80/  1/  2 1004.0R
S CRANEY ISL VA  2136   66      40/  9/ 13 1002.6R
CAPE HENRY BUOY  2142      56                N/A     7/10   3/11
1ST LANDING BUOY 2200   62 61              1003.0    4/ 5
CAPE CHARLES BUO 2151      57                N/A     7/11   3/11
64NM E OF VA BCH 2150   57 55  130/ 10/ 14 1002.5R  11/11  10/11
DUCK PIER NC     2142   62 59  200/  2/  4 1002.3R
44100 DUCK FRF   2135      57                N/A     8/11   3/11
44056 DUCK FRF   2200      60                N/A     7/11   3/11
OREGON INLET NC  2148          110/  4/  5 1002.9R
HATTERAS NC      2142   68 68  140/  3/  4 1003.0R
DIAMOND SHLS NC  2150   73 78  220/ 12/ 16 1002.9R   7/11   7/11
CAPE LOOKOUT NC  2200   68     220/ 10/ 13 1003.1R
$$




USA.gov is the U.S. government's official web portal to all federal, state and local government web resources and services.